Regional Weather Roundup
Issued by NWS

Home | Current Version | Previous Version | Graphics & Text | Print | Product List | Glossary On
Versions: 1 2 3 4 5 6 7 8 9 10 11 12 13 14 15 16 17 18 19 20 21 22 23 24 25 26 27 28 29 30 31 32 33 34 35 36 37 38 39 40 41 42 43 44 45 46 47 48 49 50
000
ASUS45 KTFX 240910
RWRMT
MONTANA REGIONAL WEATHER ROUNDUP
NATIONAL WEATHER SERVICE GREAT FALLS MT
300 AM MDT SAT SEP 24 2016

NOTE: "FAIR" INDICATES FEW OR NO CLOUDS BELOW 12000 FEET WITH NO
SIGNIFICANT WEATHER AND/OR OBSTRUCTIONS TO VISIBILITY.

MTZ001>007-043-241000-
WEST OF THE DIVIDE

CITY           SKY/WX    TMP DP  RH WIND       PRES   REMARKS
KALISPELL      CLOUDY    49  46  90 SW5       30.07R
MISSOULA       CLOUDY    52  40  63 NW13      30.11R
BUTTE          CLOUDY    41  37  86 CALM      30.09R
MULLAN PASS    LGT RAIN  36  36 100 NW7       30.13S VSB 1/2 WCI  30
ANACONDA         N/A     45  37  76 CALM      30.09R
DEER LODGE       N/A     46  37  71 E3        30.11R
EUREKA           N/A     52  37  58 SE5       30.05F
HAMILTON         N/A     54  39  58 CALM      30.10R
LIBBY            N/A     48  43  81 CALM      30.07F
PLAINS           N/A     53  39  59 CALM      30.12R
RONAN            N/A     52  40  63 SE1       30.14R
$$

MTZ008-052>055-241000-
SOUTHWEST MONTANA

CITY           SKY/WX    TMP DP  RH WIND       PRES   REMARKS
BOZEMAN        PTCLDY    44  41  89 E3        30.03R
DILLON         CLOUDY    42  37  82 NW5       30.05R
W YELLOWSTONE    N/A     45  36  70 CALM      30.01S
ENNIS          MOCLDY    46  39  76 N9        30.08R
THREE FORKS      N/A     46  24  42 CALM      30.01S
TWIN BRIDGES     N/A     47  37  68 NW10      30.03S
$$

MTZ009-010-012-014-046-048-049-054-241000-
EAST SLOPES AND CENTRAL MONTANA

CITY           SKY/WX    TMP DP  RH WIND       PRES   REMARKS
CUT BANK       CLEAR     49  38  65 W23G29    29.91F
GREAT FALLS    CLEAR     45  38  76 SW10      29.96R
MALMSTROM AFB  PTCLDY    46  41  81 SW13      29.96R
HELENA         MOCLDY    53  37  54 W15G22    30.02R
AUGUSTA          N/A     49  37  63 W14       29.95R
BOWMANS CRNR     N/A     44  37  78 SW10      29.97R
CHOTEAU          N/A     50  39  66 VRB5      29.96R
CONRAD           N/A     41  41 100 S5        29.94R
FAIRFIELD        N/A     45  37  73 S3        29.94R
POWER            N/A     38  37  93 S7        29.96R
RAYNESFORD     PTSUNNY   49  38  66 SW12      29.97R
$$

MTZ011-013-016-021-045-047-050-051-241000-
NORTH CENTRAL MONTANA

CITY           SKY/WX    TMP DP  RH WIND       PRES   REMARKS
HAVRE          PTCLDY    47  43  86 S10       29.90R
LEWISTOWN      CLOUDY    47  43  86 W5        29.94S
N BAR RANCH    MOCLDY    50  41  71 NW14      29.93F
CHINOOK          N/A     43  43 100 CALM      29.89R
DENTON         PTSUNNY   46  42  84 W14       29.90S
GEYSER           N/A     49  37  63 W14       29.95R
GRASS RANGE    PTSUNNY   51  44  77 W16       29.87F
JUDITH GAP     PTSUNNY   44  41  89 MISG      29.93F
ROY            PTSUNNY   50  45  83 MISG      29.89S
STANFORD       PTSUNNY   48  38  69 NW9       29.95R
WINIFRED       PTSUNNY   47  44  89 MISG      29.92S
$$

MTZ017>020-022>027-061-062-241000-
NORTHEAST MONTANA

CITY           SKY/WX    TMP DP  RH WIND       PRES   REMARKS
GLASGOW        FOG       47  46  97 W3        29.86F VSB 1/4
JORDAN           N/A     48  46  93 CALM      29.87F
SIDNEY         CLOUDY    55  53  93 NW13      29.81R
WOLF POINT     CLOUDY    54  52  93 NW6       29.84F
PLENTYWOOD       N/A     54  54 100 NW5       29.83F VSB 1/4
POPLAR           N/A     54  52  94 SW5       29.85S
SCOBEY           N/A     52  48  86 E3        29.84F
$$

MTZ028>42-056>058-241000-
SOUTHCENTRAL AND SOUTHEAST MONTANA

CITY           SKY/WX    TMP DP  RH WIND       PRES   REMARKS
BAKER          CLOUDY    53  51  93 NW12      29.82F
BILLINGS       CLOUDY    54  48  80 NW10      29.88F
LIVINGSTON     CLOUDY    50  42  74 W10       29.99R
MILES CITY     CLOUDY    52  49  89 W7        29.84F
BIG TIMBER     CLOUDY    52  39  62 W16G23    29.97R
FORSYTH          N/A     52  52 100 NW5       29.83F
HARLOWTON      PTSUNNY   48  41  75 W17G25    29.94F
LAUREL           N/A     54  45  71 NW3       29.89F
ROUNDUP          N/A     51  46  83 SW3       29.82F
$$

REGIONAL REPORTS...DAKOTAS

CITY           SKY/WX    TMP DP  RH WIND       PRES   REMARKS
WILLISTON      CLOUDY    55  54  96 E5        29.81S
MINOT          FOG       60  59  96 E12G22    29.77F VSB 1
DICKINSON      FOG       56  56 100 NW6       29.79R VSB 1/4
CROSBY         CLOUDY    54  54 100 E6        29.84R FOG
WATFORD CITY   CLOUDY    55  55 100 CALM      29.82R
BISMARCK       CLOUDY    62  61  96 E12       29.76F
GRAND FORKS    CLOUDY    59  57  93 E12       29.94F FOG
FARGO          CLOUDY    67  62  84 SE22G30   29.91S
BUFFALO SD       N/A     57  56  96 N18       29.70F
RAPID CITY     CLOUDY    58  54  86 N16       29.76F
$$

REGIONAL REPORTS...WYOMING/IDAHO/WASHINGTON

CITY           SKY/WX    TMP DP  RH WIND       PRES   REMARKS
GILLETTE       RAIN      49  49 100 NW12      29.86F FOG
SHERIDAN       RAIN      50  49  96 W5        29.88F FOG
BUFFALO WY     RAIN      48  46  93 NW3       29.89F FOG
CODY           RAIN      47  46  97 CALM      29.93F
YELLOWSTONE LA   N/A     39  37  92 NW8       30.00R
IDAHO FALLS    CLOUDY    44  41  89 SW6       30.03R
SALMON         CLOUDY    46  39  76 S3        30.10R
BOISE          PTCLDY    54  42  64 NW16      30.14R
SPOKANE        MOCLDY    48  42  80 S7        30.12F
$$

REGIONAL REPORTS...ALBERTA

CITY           SKY/WX    TMP DP  RH WIND       PRES   REMARKS
EDMONTON       CLOUDY    43  43 100 W5        29.83R
CALGARY        CLOUDY    50  37  62 N10G17    29.89R
LETHBRIDGE     CLEAR     52  39  62 W20G28    29.88R
MEDICINE HAT   CLEAR     46  41  81 SW10      29.82S
WATERTON GATE    N/A     50  34  53 W18G32      N/A
CARDSTON         N/A     46  37  71 W9          N/A
MILK RIVER       N/A     45  39  81 W10         N/A
ONEFOUR          N/A     46  39  76 NW13        N/A
$$

REGIONAL REPORTS...SASKATCHEWAN

CITY           SKY/WX    TMP DP  RH WIND       PRES   REMARKS
SWIFT CURRENT  CLEAR     45  45 100 SW8       29.81F
REGINA         FOG       52  52 100 SE5       29.84S VSB 3/4
SASKATOON      CLOUDY    50  50 100 SE2       29.84F FOG
CYPRESS HILLS    N/A     45  37  76 W6          N/A
VAL MARIE        N/A     46  45  93 SE7         N/A
ROCKGLEN         N/A     46  46 100 NW2         N/A
ASSINIBOIA       N/A     39  39 100 SW2         N/A
$$



USA.gov is the U.S. government's official web portal to all federal, state and local government web resources and services.